Location: Unspecified
(0.0000°N, 0.0000°E)
Time: 18:09:36
(UTC+00:00)

OTV 5 (USA 277) - Visible Passes

Search period start: 21 March 2019 00:00
Search period end: 31 March 2019 00:00
Orbit: 315 x 320 km, 54.5° (Epoch: 14 March)

Date Brightness Start Highest point End Pass type
(mag) Time Alt. Az. Time Alt. Az. Time Alt. Az.
21 Mar ? 18:36:05 10° NNW 18:38:45 69° NE 18:41:27 10° SE visible
22 Mar ? 18:51:21 10° WNW 18:53:23 19° WSW 18:55:27 10° S visible
25 Mar ? 05:06:22 10° SSW 05:08:53 42° ESE 05:11:27 10° NE visible
26 Mar ? 05:22:12 18° WSW 05:23:30 27° WNW 05:25:52 10° N visible
